Regional Weather Roundup
Issued by NWS

Home | Current Version | Previous Version | Text Only | Print | Product List | Glossary Off
Versions: 1 2 3 4 5 6 7 8 9 10 11 12 13 14 15 16 17 18 19 20 21 22 23 24 25 26 27 28 29 30 31 32 33 34 35 36 37 38 39 40 41 42 43 44 45 46 47 48 49 50

000
ASUS43 KDTX 071010
RWRMI
MICHIGAN HOURLY REGIONAL WEATHER ROUNDUP
NATIONAL WEATHER SERVICE DETROIT/PONTIAC MI
500 AM EST SUN FEB 07 2016

NOTE: "FAIR" INDICATES FEW OR NO CLOUDS BELOW 12,000 FEET WITH NO
SIGNIFICANT WEATHER AND/OR OBSTRUCTION TO VISIBILITY.

MIZ047>049-052>055-059>063-066>070-074>076-081>083-071100-
SOUTHEAST LOWER MICHIGAN

CITY           SKY/WX    TMP DP  RH WIND       PRES   REMARKS
ADRIAN         CLEAR     28  24  85 SW5       30.04F WCI  23
ALMA           MOCLDY    33  31  91 S7        29.96F WCI  27
ANN ARBOR      CLEAR     28  25  88 S5        30.03F WCI  23
BAD AXE        PTCLDY    32  28  83 S8        29.99F WCI  25
CARO           CLOUDY    32  27  83 S5        29.98F WCI  27
DETROIT CITY   PTCLDY    31  26  82 S6        30.05F WCI  25
DETROIT        MOCLDY    30  25  81 S6        30.06F WCI  24
FLINT          CLEAR     34  26  72 S7        30.00F WCI  28
GROSSE ILE     CLEAR     34  28  80 S9        30.05F WCI  26
HILLSDALE      CLEAR     29  25  85 S6        30.01F WCI  23
HOWELL         CLEAR     29  26  86 S6        30.00F WCI  23

CITY           SKY/WX    TMP DP  RH WIND       PRES   REMARKS
JACKSON        CLEAR     32  25  75 S3        30.00F
LAMBERTVILLE   CLEAR     31  25  78 S6        30.06F WCI  25
LANSING        PTCLDY    34  26  72 S9        29.99F WCI  27
LAPEER         FAIR      31  27  84 S5        30.00F WCI  27
MASON          PTCLDY    31  27  85 S5        30.00F WCI  26
MONROE         CLEAR     30  25  80 S6        30.05F WCI  24
MT. CLEMENS    CLOUDY    29  26  86 S6        30.03F WCI  23
PONTIAC        PTCLDY    30  25  81 S3        30.01F
PORT HOPE        N/A     33  26  75 VRB5      29.97F WCI  29
PORT HURON     CLEAR     30  28  93 S6        30.04F WCI  24
TRI CITIES     CLOUDY    34  27  75 S7        29.97F WCI  28
MIDLAND        CLOUDY    32  27  81 S5        29.95F WCI  28
TROY           PTCLDY    33  26  77 S5        30.05F WCI  28
SAGINAW HB     MOCLDY    32  30  93 S7        29.97F WCI  26
$$
MIZ043>046-050>051-056>058-064>065-071>073-077>080-071100-
SOUTHWEST LOWER MICHIGAN

CITY           SKY/WX    TMP DP  RH WIND       PRES   REMARKS
BATTLE CREEK   PTCLDY    33  27  78 S8        29.99F WCI  26
BENTON HARBOR  CLOUDY    36  29  75 S8        29.97F WCI  30
BIG RAPIDS     CLOUDY    33  32  96 S5        29.89F WCI  28
COLDWATER      PTCLDY    34  27  76 S3        30.00F
FREMONT        CLOUDY    33  33  99 S7        29.90F FOG     WCI  27
HOLLAND        CLOUDY    34  29  82 S8        29.95F WCI  27
GRAND RAPIDS   CLOUDY    33  28  81 S9        29.95F WCI  25
IONIA          CLOUDY    33  28  83 S8        29.95F WCI  26
KALAMAZOO      CLOUDY    32  26  78 S7        29.98F WCI  26
LUDINGTON      CLOUDY    35  32  87 S7        29.86F WCI  30
MARSHALL       PTCLDY    33  27  78 S5        29.99F WCI  29
MOUNT PLEASANT PTCLDY    33  28  82 S5        29.93F WCI  28
MUSKEGON       CLOUDY    38  32  79 S13       29.92F WCI  30
SOUTH HAVEN    CLOUDY    37  29  75 S7        29.96F WCI  31
$$
MIZ016>042-071100-
NORTHERN LOWER MICHIGAN

CITY           SKY/WX    TMP DP  RH WIND       PRES   REMARKS
ALPENA         CLOUDY    28  24  85 SE6       29.91F WCI  22
BEAVER ISLAND  CLOUDY    33  31  91 S7        29.80F WCI  27
BELLAIRE       CLOUDY    33  29  85 S6        29.86F WCI  27
CADILLAC       CLOUDY    32  31  96 S7        29.85F FOG     WCI  26
CHARLEVOIX     CLOUDY    32  29  88 S8        29.86F WCI  25
FRANKFORT      CLOUDY    35  31  85 S8        29.83F WCI  29
GAYLORD        CLOUDY    29  26  89 S10       29.84F FOG     WCI  20
GRAYLING       CLOUDY    31  28  90 S5        29.87F FOG     WCI  26
HARBOR SPRINGS CLOUDY    32  28  84 CALM      29.84F
HOUGHTON LAKE  CLOUDY    32  28  85 S8        29.89F WCI  25
MANISTEE       CLOUDY    34  27  75 SE5       29.86F WCI  30
OSCODA         CLOUDY    31  27  85 S7        29.94F WCI  25
PELLSTON       CLOUDY    29  25  85 SE6       29.85F WCI  23
ROGERS CITY    CLOUDY    29  25  84 S8        29.90F WCI  21
TRAVERSE CITY  CLOUDY    36  29  75 VRB7      29.83F WCI  30
$$
MIZ007>008-015-071100-
EASTERN UPPER MICHIGAN

CITY           SKY/WX    TMP DP  RH WIND       PRES   REMARKS
KINROSS        CLOUDY    28  28 100 SE14      29.83F WCI  17
MACKINAC ISLAN CLOUDY    29  26  87 S9        29.84F WCI  21
NEWBERRY       CLOUDY    32  31  97 S12       29.77F FOG     WCI  23
S. S. MARIE    CLOUDY    30  27  88 SE9       29.84F FOG     WCI  22
MUNISING         N/A     30  26  85 S12G21    29.70F WCI  20
$$
MIZ004>006-011>014-085-071100-
CENTRAL UPPER MICHIGAN

CITY           SKY/WX    TMP DP  RH WIND       PRES   REMARKS
MANISTIQUE     CLOUDY    35  32  89 S14       29.75F WCI  25
ESCANABA       CLOUDY    30  28  93 S12G18    29.74F WCI  21
MENOMINEE      MOCLDY    30  27  86 S10       29.73F WCI  21
SAWYER-GWINN   LGT SNOW  27  26  95 S16       29.65F WCI  15
$$
MIZ001>003-009>011-084-071100-
WESTERN UPPER MICHIGAN

CITY           SKY/WX    TMP DP  RH WIND       PRES   REMARKS
IRON MOUNTAIN  CLOUDY    29  25  85 S10       29.66F FOG     WCI  20
HOUGHTON       LGT SNOW  30  28  92 S9        29.59F FOG     WCI  22
COPPER HARBOR    N/A     32  31  96 SW9G18    29.61F WCI  24
IRONWOOD       CLOUDY    30  27  86 SW10G18   29.55F WCI  21
$$

ABBREVIATIONS USED IN REMARKS
   TC - TEMPERATURE IN CELSIUS
  WCI - WIND CHILL INDEX
   HX - HEAT INDEX
  VSB - VISIBILITY





USA.gov is the U.S. government's official web portal to all federal, state and local government web resources and services.